Saturna Island, British Columbia

5:42 AM PDT on March 24, 2017 (GMT -0700)
Saturna Island

Weather History for CWEZ - March, 2013

Change the Weather History Date:

Thursday, March 21, 2013

  Actual Average Record
Temperature  
Mean Temperature 44 °F -  
Max Temperature 50 °F - - ()
Min Temperature 38 °F - - ()
Degree Days  
Heating Degree Days 21    
Moisture  
Dew Point 31 °F    
Average Humidity 64    
Maximum Humidity 81    
Minimum Humidity 45    
Precipitation  
Precipitation 0.00 in - - ()
Sea Level Pressure  
Sea Level Pressure 30.09 in    
Wind  
Wind Speed 7 mph ()    
Max Wind Speed 15 mph    
Max Gust Speed -    
T = Trace of Precipitation, MM = Missing Value Source: Averaged Metar Reports

Daily Weather History Graph

Daily Weather History Graph

Search for Another Location

Airport or City:

Trip Planner

Search our weather history database for the weather conditions in past years. The results will help you decide how hot, cold, wet, or windy it might be!

Date:

Astronomy

Mar. 21, 2013 Rise Set
Actual Time 7:12 AM PDT 7:27 PM PDT
Civil Twilight 6:40 AM PDT 7:58 PM PDT
Nautical Twilight 6:03 AM PDT 8:35 PM PDT
Astronomical Twilight 5:25 AM PDT 9:14 PM PDT
Moon 1:38 PM PDT (3/21) 4:02 AM PDT (3/21)
Length of Visible Light 13h 17m
Length of Day
12h 14m
Waxing Gibbous, 69% of the Moon is Illuminated
Mar 21
Waxing Gibbous
Mar 27
Full
Apr 2
Last Quarter
Apr 10
New
Apr 18
First Quarter

Hourly Weather History & Observations

Time (PDT) Temp. Windchill Dew Point Humidity Pressure Visibility Wind Dir Wind Speed Gust Speed Precip Events Conditions
12:00 AM 39.2 °F 37.0 °F 28.4 °F 65% 29.94 in - WNW 3.5 mph - N/A   Unknown
1:00 AM 39.9 °F 35.8 °F 28.4 °F 63% 29.96 in - West 5.8 mph - N/A   Unknown
2:00 AM 40.1 °F 35.3 °F 27.3 °F 60% 29.99 in - West 6.9 mph - N/A   Unknown
3:00 AM 39.7 °F 35.6 °F 27.1 °F 61% 30.01 in - West 5.8 mph - N/A   Unknown
4:00 AM 39.0 °F 34.8 °F 28.8 °F 67% 30.03 in - West 5.8 mph - N/A   Unknown
5:00 AM 39 °F - 29 °F 58% 30.05 in - West 4.6 mph - -  
5:00 AM 39.0 °F 35.7 °F 29.3 °F 68% 30.05 in - West 4.6 mph - N/A   Unknown
6:00 AM 39.4 °F 33.2 °F 28.9 °F 66% 30.06 in - WSW 9.2 mph - N/A   Unknown
7:00 AM 39.2 °F 35.0 °F 29.1 °F 67% 30.07 in - West 5.8 mph - N/A   Unknown
8:00 AM 40.5 °F 34.1 °F 30.0 °F 66% 30.08 in - WSW 10.4 mph - N/A   Unknown
9:00 AM 41.5 °F 37.1 °F 29.8 °F 63% 30.10 in - West 6.9 mph - N/A   Unknown
10:00 AM 42.3 °F 36.8 °F 30.6 °F 63% 30.12 in - West 9.2 mph - N/A   Unknown
11:00 AM 44 °F - 30 °F 45% 30.13 in - WSW 11.5 mph - -  
11:00 AM 44.1 °F 38.1 °F 29.8 °F 57% 30.13 in - WSW 11.5 mph - N/A   Unknown
12:00 PM 48.2 °F - 33.1 °F 56% 30.13 in - SW 12.7 mph - N/A   Unknown
1:00 PM 49.6 °F - 31.6 °F 50% 30.13 in - SW 11.5 mph - N/A   Unknown
2:00 PM 48.7 °F - 31.5 °F 51% 30.12 in - SW 12.7 mph - N/A   Unknown
3:00 PM 46.0 °F 39.6 °F 34.2 °F 63% 30.10 in - SW 15.0 mph - N/A   Unknown
4:00 PM 44.6 °F 40.2 °F 34.7 °F 68% 30.11 in - SW 8.1 mph - N/A   Unknown
5:00 PM 45 °F - 33 °F 50% 30.12 in - WSW 9.2 mph - -  
5:00 PM 45.3 °F 40.6 °F 31.5 °F 58% 30.12 in - WSW 9.2 mph - N/A   Unknown
6:00 PM 43.0 °F 36.0 °F 34.0 °F 71% 30.11 in - SW 13.8 mph - N/A   Unknown
7:00 PM 41.7 °F 34.8 °F 34.9 °F 77% 30.11 in - SW 12.7 mph - N/A   Unknown
8:00 PM 39.7 °F 37.6 °F 30.6 °F 70% 30.13 in - WNW 3.5 mph - N/A   Unknown
9:00 PM 39.4 °F - 32.0 °F 75% 30.15 in - NNW 2.3 mph - N/A   Unknown
10:00 PM 38.3 °F 35.9 °F 32.9 °F 81% 30.16 in - NNW 3.5 mph - N/A   Unknown
11:00 PM 39 °F - 33 °F 72% 30.18 in - NW 3.5 mph - -  
11:00 PM 38.8 °F 36.5 °F 33.1 °F 80% 30.18 in - NW 3.5 mph - N/A   Unknown